Home   Weather   38°14'N, 93°21'W   Past weeks
Flag for USA

Past Weather in 38°14'N, 93°21'W, USA — Yesterday and Last 2 Weeks

Now
38 °F

Fog.


Feels Like: 35 °F
Forecast: 64 / 36 °F
Wind: 3 mph from Southeast

Location: Jefferson City Memorial Airport

Current Time: Oct 17, 2019 at 6:27:46 am

Latest Report: Oct 17, 2019 at 5:53 am


Visibility: 0 mi

Pressure: 30.09 "Hg

Humidity: 97%

Dew Point: 37 °F

Location of 38°14'N, 93°21'WLocation

Past Weather in 38°14'N, 93°21'W — Graph

°F

38°14'N, 93°21'W Temperature Yesterday

Maximum temperature yesterday: 51 °F (at 2:53 pm)
Minimum temperature yesterday: 41 °F (at 10:53 pm)
Average temperature yesterday: 47 °F

High & Low Weather Summary for the Past Weeks

 TemperatureHumidityPressure
High91 °F (Oct 2, 3:53 pm)100% (Oct 7, 6:53 am)30.33 "Hg (Oct 7, 6:53 am)
Low36 °F (Oct 12, 6:53 am)28% (Oct 8, 3:02 pm)29.77 "Hg (Oct 10, 8:53 pm)
Average58 °F73%30.04 "Hg
* Reported Oct 2 5:53 am — Oct 17 5:08 am, 38°14'N, 93°21'W. Weather by CustomWeather, © 2019

Note: Actual official high and low records may vary slightly from our data, if they occured in-between our weather recording intervals... More about our weather records

Advertising

38°14'N, 93°21'W Weather History for the Previous 24 Hours

Scroll right to see more
 ConditionsComfort  
Time TempWeatherWind HumidityBarometerVisibility
5:08 am
Thu, Oct 17
38 °FFog.No wind97%30.10 "Hg1 mi
4:12 am37 °FPassing clouds.No wind96%30.11 "Hg8 mi
3:53 am38 °FClear.No wind93%30.08 "Hg7 mi
3:20 am37 °FPassing clouds.No wind96%30.11 "Hg7 mi
2:53 am39 °FClear.No wind93%30.09 "Hg10 mi
1:53 am39 °FClear.No wind93%30.10 "Hg10 mi
12:53 am39 °FClear.No wind93%30.10 "Hg10 mi
11:53 pm
Wed, Oct 16
41 °FClear.No wind89%30.09 "Hg10 mi
10:53 pm41 °FClear.No wind89%30.09 "Hg10 mi
9:53 pm43 °FClear.No wind86%30.09 "Hg10 mi
8:53 pm45 °FClear.No wind82%30.11 "Hg10 mi
7:53 pm47 °FClear.No wind77%30.12 "Hg10 mi
6:53 pm50 °FPassing clouds.No wind66%30.11 "Hg10 mi
5:53 pm51 °FOvercast.6 mph59%30.12 "Hg10 mi
4:53 pm51 °FOvercast.10 mph61%30.12 "Hg10 mi
3:53 pm51 °FOvercast.10 mph61%30.13 "Hg10 mi
2:53 pm51 °FOvercast.9 mph61%30.14 "Hg10 mi
1:53 pm50 °FOvercast.10 mph63%30.13 "Hg10 mi
1:26 pm50 °FOvercast.8 mph61%30.16 "Hg10 mi
12:53 pm50 °FOvercast.8 mph61%30.15 "Hg10 mi
11:53 am49 °FOvercast.10 mph61%30.16 "Hg10 mi
10:53 am48 °FOvercast.13 mph63%30.15 "Hg10 mi
10:25 am49 °FPartly sunny.17 mph61%30.18 "Hg10 mi
9:53 am49 °FSunny.14 mph64%30.13 "Hg10 mi
8:53 am46 °FSunny.9 mph71%30.12 "Hg10 mi
7:53 am43 °FSunny.6 mph79%30.11 "Hg10 mi
6:53 am44 °FClear.8 mph73%30.11 "Hg10 mi
Weather by CustomWeather, © 2019

See weather overview